Weather History for KNBC - March, 2013

Change the Weather History Date:

Friday, March 15, 2013

  Actual Average Record
Temperature  
Mean Temperature 53 °F -  
Max Temperature 70 °F 69 °F 87 °F (1973)
Min Temperature 36 °F 47 °F 25 °F (1941)
Degree Days  
Heating Degree Days 12    
Growing Degree Days 3 (Base 50)    
Moisture  
Dew Point 34 °F    
Average Humidity 56    
Maximum Humidity 79    
Minimum Humidity 24    
Precipitation  
Precipitation 0.00 in - - ()
Sea Level Pressure  
Sea Level Pressure 30.17 in    
Wind  
Wind Speed 5 mph (WSW)    
Max Wind Speed 12 mph    
Max Gust Speed -    
Visibility 9 miles    
Events      
Averages and records for this station are not official NWS values.
T = Trace of Precipitation, MM = Missing Value Source: NWS Daily Summary

Daily Weather History Graph

Daily Weather History Graph

Search for Another Location

Airport or City:

Trip Planner

Search our weather history database for the weather conditions in past years. The results will help you decide how hot, cold, wet, or windy it might be!

Date:

Astronomy

Mar. 15, 2013 Rise Set
Actual Time 7:32 AM EDT 7:31 PM EDT
Civil Twilight 7:08 AM EDT 7:55 PM EDT
Nautical Twilight 6:39 AM EDT 8:24 PM EDT
Astronomical Twilight 6:11 AM EDT 8:52 PM EDT
Moon 9:36 AM EDT (3/15) 11:27 PM EDT (3/15)
Length of Visible Light 12h 47m
Length of Day
11h 58m
Waxing Crescent, 15% of the Moon is Illuminated
Mar 15
Waxing Crescent
Mar 19
First Quarter
Mar 27
Full
Apr 3
Last Quarter
Apr 10
New

Hourly Weather History & Observations

Time (EDT) Temp. Windchill Dew Point Humidity Pressure Visibility Wind Dir Wind Speed Gust Speed Precip Events Conditions
12:56 AM 39.0 °F 35.7 °F 33.1 °F 79% 30.25 in 10.0 mi WSW 4.6 mph - N/A   Clear
1:56 AM 39.0 °F 36.8 °F 33.1 °F 79% 30.23 in 10.0 mi WSW 3.5 mph - N/A   Clear
2:56 AM 39.9 °F 36.7 °F 32.0 °F 73% 30.23 in 10.0 mi West 4.6 mph - N/A   Clear
3:56 AM 37.9 °F 34.4 °F 30.9 °F 76% 30.20 in 10.0 mi WSW 4.6 mph - N/A   Clear
4:56 AM 37.9 °F - 30.0 °F 73% 30.20 in 10.0 mi Calm Calm - N/A   Clear
5:56 AM 36.0 °F 33.3 °F 30.0 °F 79% 30.22 in 10.0 mi WSW 3.5 mph - N/A   Clear
6:56 AM 39.9 °F 35.1 °F 26.1 °F 58% 30.24 in 10.0 mi West 6.9 mph - N/A   Clear
7:56 AM 41.0 °F - 27.0 °F 57% 30.24 in 5.0 mi Calm Calm - N/A   Haze
8:56 AM 45.0 °F 40.1 °F 26.1 °F 48% 30.26 in 5.0 mi NNW 9.2 mph - N/A   Haze
9:56 AM 46.9 °F - 27.0 °F 46% 30.26 in 6.0 mi Variable 4.6 mph - N/A   Haze
10:56 AM 53.1 °F - 26.1 °F 35% 30.25 in 10.0 mi NW 4.6 mph - N/A   Haze
11:56 AM 59.0 °F - 27.0 °F 29% 30.23 in 10.0 mi West 9.2 mph - N/A   Haze
12:56 PM 61.0 °F - 28.0 °F 29% 30.22 in 10.0 mi WNW 9.2 mph - N/A   Clear
1:56 PM 64.9 °F - 28.9 °F 26% 30.19 in 10.0 mi West 11.5 mph - N/A   Clear
3:56 PM 66.9 °F - 28.9 °F 24% 30.11 in 7.0 mi NNW 4.6 mph - N/A   Mostly Cloudy
4:56 PM 70.0 °F - 32.0 °F 25% 30.09 in 10.0 mi SSW 6.9 mph - N/A   Clear
5:56 PM 63.0 °F - 46.0 °F 54% 30.07 in 10.0 mi South 9.2 mph - N/A   Clear
6:56 PM 60.1 °F - 46.0 °F 60% 30.07 in 10.0 mi South 6.9 mph - N/A   Clear
7:56 PM 57.0 °F - 43.0 °F 59% 30.07 in 10.0 mi SSW 5.8 mph - N/A   Clear
8:56 PM 55.9 °F - 44.1 °F 64% 30.08 in 10.0 mi SSW 6.9 mph - N/A   Clear
9:56 PM 55.0 °F - 46.9 °F 74% 30.09 in 10.0 mi SSW 4.6 mph - N/A   Clear
10:56 PM 55.0 °F - 46.9 °F 74% 30.09 in 10.0 mi SSW 5.8 mph - N/A   Clear
11:56 PM 55.9 °F - 46.9 °F 72% 30.08 in 10.0 mi SSW 8.1 mph - N/A   Clear